{"data":{"norad_id":66248,"intl_designator":"2025-245Q","name":"STARLINK-35416","alt_names":[],"object_type":"PAYLOAD","status":"ACTIVE","operator":null,"country":"US","launch_date":"2025-10-29","launch_site_code":"AFETR","launch_vehicle":null,"mission":null,"orbit_class":"UNKNOWN","rcs_meters":null,"size_class":null,"mass_kg":null,"dimensions":null,"purposes":["comms"],"wikipedia_slug":null,"has_3d_model":false,"image_url":null,"decayed_at":null,"tle_current":{"epoch":"2026-05-25T03:06:37.117728Z","epoch_age_seconds":70765,"freshness":"FRESH","line1":"1 66248U 25245Q   26145.12959627  .00024176  00000+0  78766-3 0  9999","line2":"2 66248  53.1593 288.5631 0001562 105.1661 254.9513 15.31726597 32900","mean_motion":15.31726597,"eccentricity":0.0001562,"inclination_deg":53.1593,"raan_deg":288.5631,"arg_perigee_deg":105.1661,"mean_anomaly_deg":254.9513,"bstar":0.00078766,"rev_number":3290,"period_min":94.011555509994,"perigee_km":469.59092989726,"apogee_km":471.73049430252,"semimajor_km":6848.7977120999,"source":"CELESTRAK","updated_at":"2026-05-25T13:38:21.136435Z"}}}